FW8685 Weather Reports


time (UTC)temp
C
wind
direction
speed
KPH
gust
KPH
rain 1hr
cm
rain 24hr
cm
rain mn
cm
humidity
%
barometer
mb
20260509095522 8 225 1.6 4.8 0.00 0.00 0.00 90 1007.6
20260509095024 8 223 1.6 4.8 0.00 0.00 0.00 90 1007.5
20260509094543 8 224 1.6 4.8 0.00 0.00 0.00 90 1007.5
20260509094021 8 224 0.0 4.8 0.00 0.00 0.00 90 1007.5
20260509093521 8 0 1.6 4.8 0.00 0.00 0.00 90 1007.6
20260509093040 8 223 1.6 4.8 0.00 0.00 0.00 90 1007.5
20260509092521 8 223 3.2 6.4 0.00 0.00 0.00 90 1007.6
20260509092021 8 224 4.8 6.4 0.00 0.00 0.00 90 1007.6
20260509091547 9 223 3.2 6.4 0.00 0.00 0.00 90 1007.6
20260509091023 9 223 3.2 6.4 0.00 0.00 0.00 90 1007.7
20260509090521 9 223 3.2 4.8 0.00 0.00 0.00 90 1007.7
20260509090051 9 224 3.2 6.4 0.00 0.00 0.00 90 1007.6
20260509085521 8 224 1.6 6.4 0.00 0.00 0.00 90 1007.6
20260509085020 8 227 3.2 6.4 0.00 0.00 0.00 90 1007.5
20260509084541 8 236 3.2 6.4 0.00 0.00 0.00 90 1007.5
20260509084022 9 238 3.2 6.4 0.00 0.00 0.00 90 1007.6
20260509083521 9 229 3.2 6.4 0.00 0.00 0.00 90 1007.6
20260509083041 9 206 3.2 4.8 0.00 0.00 0.00 90 1007.7
20260509082521 9 205 3.2 4.8 0.00 0.00 0.00 90 1007.7
20260509082023 9 205 1.6 4.8 0.00 0.00 0.00 90 1007.7
20260509081538 8 205 1.6 6.4 0.00 0.00 0.00 90 1007.7
20260509081023 8 205 3.2 6.4 0.00 0.00 0.00 89 1007.7
20260509080524 8 204 4.8 6.4 0.00 0.00 0.00 89 1007.7
20260509080045 8 202 4.8 6.4 0.00 0.00 0.00 89 1007.6
20260509075521 9 215 4.8 6.4 0.00 0.00 0.00 89 1007.7
20260509075022 9 188 3.2 6.4 0.00 0.00 0.00 89 1007.8
20260509074553 9 188 3.2 6.4 0.00 0.00 0.00 89 1007.7
20260509074023 9 188 3.2 6.4 0.00 0.00 0.00 89 1007.6
20260509073522 9 196 4.8 6.4 0.00 0.00 0.00 89 1007.6
20260509073058 8 186 3.2 8.0 0.00 0.00 0.00 89 1007.6
20260509072521 8 204 4.8 8.0 0.00 0.00 0.00 88 1007.6
20260509072021 8 199 4.8 8.0 0.00 0.00 0.00 88 1007.7
20260509071542 8 197 4.8 8.0 0.00 0.00 0.00 87 1007.6
20260509071022 8 207 4.8 8.0 0.00 0.00 0.00 87 1007.5
20260509070522 8 217 4.8 8.0 0.00 0.00 0.00 86 1007.6
20260509070041 8 217 3.2 8.0 0.00 0.00 0.00 86 1007.7
20260509065521 8 209 4.8 9.7 0.00 0.00 0.00 86 1007.7
20260509065021 8 193 6.4 9.7 0.00 0.00 0.00 86 1007.7
20260509064539 8 180 4.8 11.3 0.00 0.00 0.00 85 1007.6
20260509064024 8 186 6.4 11.3 0.00 0.00 0.00 84 1007.6
20260509063522 8 197 6.4 8.0 0.00 0.00 0.00 84 1007.6
20260509063053 9 192 4.8 8.0 0.00 0.00 0.00 84 1007.7
20260509062526 9 171 6.4 8.0 0.00 0.00 0.00 84 1007.7
20260509062021 9 170 4.8 6.4 0.00 0.00 0.00 84 1007.6
20260509061538 9 170 4.8 6.4 0.00 0.00 0.00 84 1007.6
20260509061025 9 0 0.0 0.0 0.00 0.00 0.00 84 1007.5
20260509060524 10 0 0.0 3.2 0.00 0.00 0.00 84 1007.5
20260509060101 10 0 0.0 3.2 0.00 0.00 0.00 84 1007.4
20260509055521 10 171 1.6 6.4 0.00 0.00 0.00 83 1007.4
20260509055025 10 0 1.6 6.4 0.00 0.00 0.00 83 1007.5
20260509054539 10 171 1.6 6.4 0.00 0.00 0.00 83 1007.5
20260509054021 10 171 0.0 6.4 0.00 0.00 0.00 83 1007.6
20260509053522 10 171 1.6 6.4 0.00 0.00 0.00 83 1007.6
20260509053051 10 171 1.6 6.4 0.00 0.00 0.00 82 1007.7
20260509052522 10 171 0.0 3.2 0.00 0.00 0.00 83 1007.6
20260509052021 10 0 0.0 3.2 0.00 0.00 0.00 82 1007.7
20260509051538 10 171 1.6 3.2 0.00 0.00 0.00 82 1007.7
20260509051021 10 171 1.6 3.2 0.00 0.00 0.00 82 1007.8
20260509050521 10 170 1.6 3.2 0.00 0.00 0.00 81 1007.9
20260509050037 11 170 0.0 4.8 0.00 0.00 0.00 81 1007.8
20260509045526 11 170 1.6 6.4 0.00 0.00 0.00 81 1007.9
20260509045022 11 171 1.6 6.4 0.00 0.00 0.00 81 1007.9
20260509044537 11 171 1.6 6.4 0.00 0.00 0.00 81 1007.9
20260509044025 11 171 3.2 6.4 0.00 0.00 0.00 80 1007.8
20260509043520 11 172 1.6 6.4 0.00 0.00 0.00 80 1007.8
20260509043045 11 172 3.2 8.0 0.00 0.00 0.00 79 1007.8
20260509042522 11 172 4.8 8.0 0.00 0.00 0.00 77 1007.8
20260509042022 11 158 6.4 8.0 0.00 0.00 0.00 76 1007.9
20260509041538 11 201 1.6 4.8 0.00 0.00 0.00 73 1007.9
20260509041021 12 0 0.0 0.0 0.00 0.00 0.00 73 1007.9
20260509040521 12 0 0.0 1.6 0.00 0.00 0.00 73 1007.8
20260509040055 12 0 0.0 4.8 0.00 0.00 0.00 73 1007.8
20260509035522 12 315 1.6 4.8 0.00 0.00 0.00 74 1007.9
20260509035022 12 0 0.0 0.0 0.00 0.00 0.00 73 1007.9
20260509034537 13 0 0.0 1.6 0.00 0.00 0.00 73 1007.8
20260509034021 13 0 0.0 3.2 0.00 0.00 0.00 73 1007.8
20260509033521 13 0 0.0 4.8 0.00 0.00 0.00 72 1007.7
20260509033054 13 0 1.6 4.8 0.00 0.00 0.00 71 1007.7
20260509032523 13 315 1.6 4.8 0.00 0.00 0.00 71 1007.7
20260509032021 13 0 0.0 0.0 0.00 0.00 0.00 71 1007.7
20260509031537 13 0 0.0 0.0 0.00 0.00 0.00 70 1007.7
20260509031022 14 0 0.0 0.0 0.00 0.00 0.00 68 1007.7
20260509030522 14 0 0.0 0.0 0.00 0.00 0.00 69 1007.6
20260509030039 14 0 0.0 4.8 0.00 0.00 0.00 68 1007.6
20260509025522 15 0 0.0 6.4 0.00 0.00 0.00 68 1007.5
20260509025021 15 88 3.2 6.4 0.00 0.00 0.00 69 1007.5
20260509024540 15 0 0.0 0.0 0.00 0.00 0.00 68 1007.4
20260509024025 15 0 0.0 0.0 0.00 0.00 0.00 66 1007.5
20260509023524 16 0 0.0 1.6 0.00 0.00 0.00 64 1007.4
20260509023037 16 0 0.0 1.6 0.00 0.00 0.00 62 1007.3
20260509022521 17 9 0.0 1.6 0.00 0.00 0.00 61 1007.3
20260509022021 17 0 0.0 0.0 0.00 0.00 0.00 58 1007.4
20260509021537 17 0 0.0 0.0 0.00 0.00 0.00 57 1007.3
20260509021023 18 0 0.0 1.6 0.00 0.00 0.00 54 1007.2
20260509020524 18 0 0.0 4.8 0.00 0.00 0.00 53 1007.1
20260509020037 18 0 0.0 6.4 0.00 0.00 0.00 52 1007.1
20260509015521 19 351 3.2 8.0 0.00 0.00 0.00 52 1007.0
20260509015023 19 333 3.2 8.0 0.00 0.00 0.00 51 1006.9
20260509014532 20 331 3.2 8.0 0.00 0.00 0.00 50 1006.7
20260509014022 20 9 3.2 6.4 0.00 0.00 0.00 50 1006.6
20260509013522 20 9 3.2 6.4 0.00 0.00 0.00 49 1006.5
20260509013038 20 10 3.2 6.4 0.00 0.00 0.00 48 1006.5
20260509012522 20 26 3.2 8.0 0.00 0.00 0.00 48 1006.5
20260509012022 21 27 3.2 8.0 0.00 0.00 0.00 48 1006.4
20260509011544 21 28 4.8 14.5 0.00 0.00 0.00 48 1006.4
20260509011022 21 24 3.2 14.5 0.00 0.00 0.00 47 1006.3
20260509010521 21 352 6.4 14.5 0.00 0.00 0.00 46 1006.3
20260509010039 21 21 6.4 12.9 0.00 0.00 0.00 47 1006.4
20260509005525 21 17 8.0 19.3 0.00 0.00 0.00 47 1006.3
20260509005022 22 19 6.4 19.3 0.00 0.00 0.00 47 1006.2
20260509004548 22 5 9.7 20.9 0.00 0.00 0.00 46 1006.1
20260509004021 22 28 8.0 22.5 0.00 0.00 0.00 46 1006.0
20260509003522 22 352 12.9 22.5 0.00 0.00 0.00 46 1005.9
20260509003040 22 351 9.7 22.5 0.00 0.00 0.00 48 1005.9
20260509002525 22 20 11.3 22.5 0.00 0.00 0.00 48 1005.8
20260509002022 22 32 14.5 22.5 0.00 0.00 0.00 47 1005.8
20260509001538 23 345 8.0 22.5 0.00 0.00 0.00 47 1005.7
20260509001021 23 53 11.3 25.7 0.00 0.00 0.00 46 1005.6
20260509000521 23 344 14.5 25.7 0.00 0.00 0.00 44 1005.6
20260509000037 23 331 11.3 24.1 0.00 0.00 0.00 44 1005.6
20260508235522 23 342 11.3 20.9 0.00 0.00 0.00 43 1005.5
20260508235023 24 5 12.9 24.1 0.00 0.00 0.00 43 1005.3
20260508234537 24 319 12.9 29.0 0.00 0.00 0.00 42 1005.3
20260508234022 24 294 14.5 29.0 0.00 0.00 0.00 42 1005.2
20260508233525 24 9 16.1 29.0 0.00 0.00 0.00 44 1005.1
20260508233038 24 5 14.5 35.4 0.00 0.00 0.00 46 1005.2
20260508232522 24 12 22.5 35.4 0.00 0.00 0.00 46 1005.2
20260508232022 25 30 16.1 33.8 0.00 0.00 0.00 45 1005.0
20260508231538 25 360 12.9 25.7 0.00 0.00 0.00 46 1005.0
20260508231022 25 297 14.5 24.1 0.00 0.00 0.00 45 1005.0
20260508230521 25 23 11.3 27.4 0.00 0.00 0.00 44 1005.0
20260508230042 25 306 14.5 33.8 0.00 0.00 0.00 43 1005.0
20260508225525 25 22 16.1 33.8 0.00 0.00 0.00 43 1005.0
20260508225021 25 5 9.7 22.5 0.00 0.00 0.00 42 1005.1
20260508224549 25 316 12.9 22.5 0.00 0.00 0.00 41 1005.0
20260508224025 25 292 12.9 22.5 0.00 0.00 0.00 40 1005.1
20260508223524 25 17 12.9 20.9 0.00 0.00 0.00 41 1004.9
20260508223037 25 14 9.7 27.4 0.00 0.00 0.00 40 1004.9
20260508222523 25 292 12.9 29.0 0.00 0.00 0.00 41 1004.9
20260508222022 25 305 16.1 29.0 0.00 0.00 0.00 42 1004.9
20260508221537 25 257 11.3 20.9 0.00 0.00 0.00 43 1004.8
20260508221021 25 306 9.7 24.1 0.00 0.00 0.00 45 1004.8
20260508220521 25 303 14.5 24.1 0.00 0.00 0.00 42 1004.9
20260508220046 25 22 11.3 20.9 0.00 0.00 0.00 45 1005.0
20260508215527 25 322 6.4 24.1 0.00 0.00 0.00 45 1004.9
20260508215022 25 290 11.3 24.1 0.00 0.00 0.00 46 1004.9
20260508214543 25 311 11.3 24.1 0.00 0.00 0.00 47 1004.8
20260508214021 25 325 14.5 24.1 0.00 0.00 0.00 45 1004.8
20260508213522 25 311 14.5 20.9 0.00 0.00 0.00 45 1004.8
20260508213039 24 331 9.7 20.9 0.00 0.00 0.00 47 1004.6
20260508212522 24 313 3.2 17.7 0.00 0.00 0.00 48 1004.6
20260508212023 23 325 6.4 19.3 0.00 0.00 0.00 49 1004.6
20260508211540 23 313 8.0 19.3 0.00 0.00 0.00 50 1004.7
20260508211022 23 294 9.7 20.9 0.00 0.00 0.00 50 1004.6
20260508210522 23 360 11.3 20.9 0.00 0.00 0.00 49 1004.7
20260508210040 22 306 11.3 20.9 0.00 0.00 0.00 49 1004.7
20260508205521 22 279 9.7 20.9 0.00 0.00 0.00 50 1004.9
20260508205021 22 232 8.0 17.7 0.00 0.00 0.00 50 1005.3
20260508204539 22 256 11.3 22.5 0.00 0.00 0.00 52 1005.4
20260508204021 22 238 6.4 25.7 0.00 0.00 0.00 51 1005.1
20260508203522 22 257 16.1 25.7 0.00 0.00 0.00 51 1004.9
20260508203040 22 277 11.3 25.7 0.00 0.00 0.00 53 1005.0
20260508202523 22 282 12.9 20.9 0.00 0.00 0.00 52 1005.1
20260508202022 22 299 9.7 20.9 0.00 0.00 0.00 53 1004.9
20260508201540 22 280 11.3 19.3 0.00 0.00 0.00 53 1005.0
20260508201022 22 287 8.0 19.3 0.00 0.00 0.00 52 1005.2
20260508200522 22 274 11.3 20.9 0.00 0.00 0.00 51 1005.5
20260508200039 22 286 11.3 24.1 0.00 0.00 0.00 51 1005.4
20260508195521 22 301 12.9 24.1 0.00 0.00 0.00 50 1005.3
20260508195022 23 308 11.3 22.5 0.00 0.00 0.00 51 1005.3
20260508194546 23 336 12.9 22.5 0.00 0.00 0.00 51 1005.6
20260508194022 23 250 14.5 22.5 0.00 0.00 0.00 50 1005.5
20260508193521 23 286 8.0 22.5 0.00 0.00 0.00 50 1005.5
20260508193039 23 238 9.7 17.7 0.00 0.00 0.00 51 1005.6
20260508192522 23 244 6.4 17.7 0.00 0.00 0.00 51 1005.2
20260508192022 23 229 8.0 17.7 0.00 0.00 0.00 50 1005.3
20260508191545 23 257 8.0 16.1 0.00 0.00 0.00 48 1005.4
20260508191022 23 261 6.4 16.1 0.00 0.00 0.00 48 1005.3
20260508190522 23 257 6.4 27.4 0.00 0.00 0.00 49 1005.1
20260508190100 23 206 8.0 27.4 0.00 0.00 0.00 48 1005.1
20260508185522 24 237 12.9 27.4 0.00 0.00 0.00 45 1005.6
20260508185025 24 287 12.9 22.5 0.00 0.00 0.00 44 1005.5
20260508184541 25 238 12.9 25.7 0.00 0.00 0.00 44 1005.4
20260508184022 25 232 14.5 29.0 0.00 0.00 0.00 43 1005.9
20260508183521 25 257 17.7 30.6 0.00 0.00 0.00 42 1005.7
20260508183042 26 225 16.1 30.6 0.00 0.00 0.00 43 1005.8
20260508182521 26 249 12.9 32.2 0.00 0.00 0.00 43 1006.1
20260508182021 25 295 12.9 32.2 0.00 0.00 0.00 45 1006.1
20260508181544 25 242 19.3 32.2 0.00 0.00 0.00 44 1006.4
20260508181021 24 239 17.7 30.6 0.00 0.00 0.00 49 1006.4
20260508180524 23 272 17.7 30.6 0.00 0.00 0.00 48 1006.4
20260508180038 23 249 16.1 30.6 0.00 0.00 0.00 47 1006.5
20260508175522 23 269 17.7 33.8 0.00 0.00 0.00 46 1006.5
20260508175024 24 243 16.1 33.8 0.00 0.00 0.00 47 1006.7
20260508174541 24 269 17.7 40.2 0.00 0.00 0.00 47 1006.5
20260508174022 23 231 22.5 40.2 0.00 0.00 0.00 47 1006.6
20260508173521 23 246 16.1 30.6 0.00 0.00 0.00 48 1006.5
20260508173038 23 239 12.9 30.6 0.00 0.00 0.00 48 1006.5
20260508172525 23 231 14.5 29.0 0.00 0.00 0.00 48 1006.4
20260508172022 23 244 11.3 32.2 0.00 0.00 0.00 48 1006.5
20260508171544 24 254 12.9 32.2 0.00 0.00 0.00 47 1006.5
20260508171021 24 259 19.3 30.6 0.00 0.00 0.00 48 1006.5
20260508170521 24 223 17.7 30.6 0.00 0.00 0.00 47 1006.5
20260508170037 23 254 12.9 30.6 0.00 0.00 0.00 49 1006.5
20260508165521 23 221 16.1 30.6 0.00 0.00 0.00 50 1006.6
20260508165021 23 196 12.9 29.0 0.00 0.00 0.00 51 1006.6
20260508164537 22 220 11.3 22.5 0.00 0.00 0.00 50 1006.6
20260508164022 22 224 11.3 25.7 0.00 0.00 0.00 52 1006.8
20260508163522 22 247 16.1 32.2 0.00 0.00 0.00 51 1006.7
20260508163050 23 191 14.5 32.2 0.00 0.00 0.00 50 1006.9
20260508162525 23 204 14.5 32.2 0.00 0.00 0.00 50 1007.0
20260508162021 23 188 14.5 25.7 0.00 0.00 0.00 49 1007.0
20260508161552 23 187 11.3 25.7 0.00 0.00 0.00 51 1006.9
20260508161022 22 231 12.9 25.7 0.00 0.00 0.00 52 1006.9
20260508160525 22 225 16.1 27.4 0.00 0.00 0.00 52 1006.9
20260508160039 22 248 14.5 27.4 0.00 0.00 0.00 53 1007.1
20260508155522 22 178 9.7 25.7 0.00 0.00 0.00 54 1007.2
20260508155023 22 240 14.5 30.6 0.00 0.00 0.00 54 1007.2
20260508154538 22 237 12.9 30.6 0.00 0.00 0.00 55 1007.3
20260508154024 22 225 12.9 30.6 0.00 0.00 0.00 55 1007.4
20260508153522 21 223 12.9 29.0 0.00 0.00 0.00 55 1007.4
20260508153052 22 234 17.7 29.0 0.00 0.00 0.00 54 1007.4
20260508152521 22 209 12.9 29.0 0.00 0.00 0.00 56 1007.3
20260508152022 21 240 14.5 25.7 0.00 0.00 0.00 57 1007.3
20260508151538 21 234 12.9 25.7 0.00 0.00 0.00 59 1007.5
20260508151025 20 180 11.3 32.2 0.00 0.00 0.00 59 1007.6
20260508150522 20 232 16.1 32.2 0.00 0.00 0.00 58 1007.7
20260508150037 20 273 9.7 32.2 0.00 0.00 0.00 58 1007.7
20260508145521 20 242 17.7 32.2 0.00 0.00 0.00 58 1007.8
20260508145023 20 202 12.9 35.4 0.00 0.00 0.00 58 1007.8
20260508144537 20 267 17.7 35.4 0.00 0.00 0.00 58 1007.8
20260508144023 20 215 14.5 30.6 0.00 0.00 0.00 59 1007.8
20260508143524 20 263 11.3 35.4 0.00 0.00 0.00 60 1008.0
20260508143057 20 224 17.7 35.4 0.00 0.00 0.00 61 1008.1
20260508142522 19 204 16.1 30.6 0.00 0.00 0.00 61 1008.1
20260508142023 19 237 12.9 33.8 0.00 0.00 0.00 62 1008.0
20260508141540 19 224 14.5 37.0 0.00 0.00 0.00 63 1008.0
20260508141022 18 273 17.7 37.0 0.00 0.00 0.00 64 1008.0
20260508140522 18 225 12.9 35.4 0.00 0.00 0.00 66 1008.0
20260508140039 17 220 14.5 25.7 0.00 0.00 0.00 67 1008.2
20260508135523 17 257 11.3 24.1 0.00 0.00 0.00 67 1008.3
20260508135022 17 189 12.9 25.7 0.00 0.00 0.00 68 1008.1
20260508134539 17 245 9.7 25.7 0.00 0.00 0.00 69 1008.0
20260508134023 16 213 8.0 27.4 0.00 0.00 0.00 72 1008.0
20260508133522 16 207 14.5 27.4 0.00 0.00 0.00 72 1008.0
20260508133037 15 219 11.3 27.4 0.00 0.00 0.00 73 1008.0
20260508132522 15 200 12.9 27.4 0.00 0.00 0.00 75 1008.0
20260508132022 14 209 11.3 19.3 0.00 0.00 0.00 77 1007.9
20260508131537 13 204 9.7 20.9 0.00 0.00 0.00 79 1008.0
20260508131026 13 208 8.0 20.9 0.00 0.00 0.00 80 1008.1
20260508130522 12 221 8.0 16.1 0.00 0.00 0.00 80 1008.0
20260508130042 12 194 9.7 17.7 0.00 0.00 0.00 80 1007.8
20260508125522 12 188 8.0 17.7 0.00 0.00 0.00 81 1007.9
20260508125022 11 184 9.7 16.1 0.00 0.00 0.00 82 1007.9
20260508124537 11 180 8.0 16.1 0.00 0.00 0.00 83 1007.9
20260508124021 11 169 8.0 14.5 0.00 0.00 0.00 83 1008.0
20260508123521 11 174 8.0 12.9 0.00 0.00 0.00 83 1008.0
20260508123042 10 210 4.8 11.3 0.00 0.00 0.00 83 1008.0
20260508122547 10 186 6.4 12.9 0.00 0.00 0.00 83 1007.9
20260508122022 10 165 8.0 12.9 0.00 0.00 0.00 83 1007.8
20260508121537 10 173 6.4 11.3 0.00 0.00 0.00 83 1007.8
20260508121022 10 162 6.4 9.7 0.00 0.00 0.00 83 1007.8
20260508120524 10 191 6.4 11.3 0.00 0.00 0.00 82 1007.8
20260508120037 10 186 6.4 12.9 0.00 0.00 0.00 82 1007.8
20260508115522 10 180 8.0 12.9 0.00 0.00 0.00 82 1007.9
20260508115022 10 209 6.4 12.9 0.00 0.00 0.00 81 1007.9
20260508114537 10 178 6.4 16.1 0.00 0.00 0.00 81 1007.9
20260508114022 10 180 8.0 16.1 0.00 0.00 0.00 80 1007.9
20260508113522 10 181 8.0 12.9 0.00 0.00 0.00 79 1007.9
20260508113038 10 165 8.0 12.9 0.00 0.00 0.00 79 1007.8
20260508112524 10 190 8.0 12.9 0.00 0.00 0.00 78 1007.8
20260508112022 10 156 8.0 11.3 0.00 0.00 0.00 78 1007.8
20260508111541 10 161 8.0 11.3 0.00 0.00 0.00 78 1007.9
20260508111024 10 164 6.4 9.7 0.00 0.00 0.00 78 1007.9
20260508110521 10 164 6.4 9.7 0.00 0.00 0.00 78 1007.9
20260508110038 10 165 6.4 8.0 0.00 0.00 0.00 78 1007.9
20260508105521 10 175 4.8 9.7 0.00 0.00 0.00 78 1008.0
20260508105024 10 174 4.8 9.7 0.00 0.00 0.00 78 1008.0
20260508104538 10 180 6.4 11.3 0.00 0.00 0.00 78 1007.8
20260508104022 10 186 4.8 11.3 0.00 0.00 0.00 78 1007.7
20260508103522 10 190 6.4 12.9 0.00 0.00 0.00 78 1007.7
20260508103045 10 209 8.0 14.5 0.00 0.00 0.00 77 1007.8
20260508102523 10 210 6.4 14.5 0.00 0.00 0.00 77 1007.7
20260508102024 10 234 3.2 11.3 0.00 0.00 0.00 77 1007.8
20260508101536 10 178 6.4 11.3 0.00 0.00 0.00 76 1007.6
20260508101022 10 195 8.0 11.3 0.00 0.00 0.00 75 1007.5
20260508100523 10 175 6.4 9.7 0.00 0.00 0.00 75 1007.6
20260508100057 10 194 6.4 12.9 0.00 0.00 0.00 75 1007.6